Home > Weather > Varel > Past weeks

Flag for Germany Weather for the Past 2 Weeks in Varel, Lower Saxony, Germany

Now
64 °F

Scattered clouds.


Feels Like: 64 °F
Forecast: 54 / 71 °F
Wind: 12 mph from East

Location: Wittmundhaven

Current Time: May 6, 2016 at 12:13:35 PM

Latest Report: May 6, 2016 at 11:20 AM


Visibility: N/A

Pressure: 30.04 "Hg

Humidity: 60%

Dew Point: 50 °F

Location of VarelLocation

Historic Weather in Varel — Graph

°F

Varel Temperature Yesterday

Maximum temperature yesterday: 63 °F (at 2:20 PM)
Minimum temperature yesterday: 41 °F (at 3:20 AM)
Average temperature yesterday: 53 °F

High & Low Weather Summary for the Past Weeks

 TemperatureHumidityPressure
High64 °F (May 2, 2:20 PM)100% (Apr 25, 9:20 AM)30.39 "Hg (Apr 25, 9:20 AM)
Low32 °F (Apr 25, 9:20 AM)34% (May 5, 12:20 PM)29.33 "Hg (Apr 26, 4:20 PM)
Average44 °F76%29.98 "Hg
* Reported Apr 21 10:20 AM — May 6 10:20 AM, Varel, Weather by CustomWeather, © 2016

Note: Actual official high and low records may vary slightly from our data, if they occured in-between our weather recording intervals... More about our weather records

Advertising

Varel Weather History for the Previous 24 Hours

Scroll right to see more
 ConditionsComfort  
Time TempWeatherWind HumidityBarometerVisibility
10:20 AM
Fri, May 6
63 °FScattered clouds.13 mph59%30.07 "HgN/A
9:20 AM57 °FScattered clouds.7 mph67%30.07 "HgN/A
8:20 AM54 °FScattered clouds.10 mph67%30.09 "HgN/A
7:20 AM50 °FPartly sunny.10 mph76%30.09 "HgN/A
6:20 AM46 °FCool.8 mph82%30.09 "HgN/A
5:20 AM46 °FCool.7 mph76%30.12 "HgN/A
4:20 AM48 °FCool.6 mph71%30.12 "HgN/A
3:20 AM48 °FCool.8 mph71%30.12 "Hg6 mi
2:20 AM48 °FCool.8 mph71%30.15 "HgN/A
1:20 AM50 °FCool.8 mph71%30.15 "Hg4 mi
12:20 AM52 °FCool.9 mph67%30.15 "Hg5 mi
11:20 PM
Thu, May 5
54 °FCool.10 mph67%30.18 "Hg4 mi
10:20 PM55 °FRefreshingly cool.8 mph59%30.18 "Hg4 mi
9:20 PM55 °FRefreshingly cool.7 mph55%30.18 "HgN/A
8:20 PM59 °FRefreshingly cool.8 mph45%30.18 "HgN/A
7:20 PM61 °FRefreshingly cool.12 mph42%30.21 "HgN/A
6:20 PM63 °FPartly sunny.13 mph37%30.21 "HgN/A
5:20 PM63 °FPartly sunny.15 mph37%30.24 "HgN/A
4:20 PM63 °FPartly sunny.13 mph37%30.27 "HgN/A
3:20 PM63 °FPartly sunny.13 mph34%30.27 "HgN/A
2:20 PM63 °FPartly sunny.9 mph34%30.30 "HgN/A
1:20 PM61 °FPartly sunny.12 mph36%30.30 "HgN/A
12:20 PM61 °FPartly sunny.12 mph34%30.33 "HgN/A
Weather by CustomWeather, © 2016

See weather overviewHow to use our weather pages